Regional Weather Roundup
Issued by NWS Huntsville, AL

Home | Current Version | Previous Version | Text Only | Print | Product List | Glossary On
Versions: 1 2 3 4 5 6 7 8 9 10 11 12 13 14 15 16 17 18 19 20 21 22 23 24 25 26 27 28
000
ASUS44 KHUN 031310
RWRHUN

WEATHER ROUNDUP FOR THE TENNESSEE VALLEY
NATIONAL WEATHER SERVICE HUNTSVILLE AL
800 AM CDT TUE MAY 03 2016

ALZ001>004-031400-
NORTHWEST ALABAMA

CITY           SKY/WX    TMP DP  RH WIND       PRES   REMARKS
COURTLAND HCN    N/A     59 N/A N/A CALM        N/A
RUSSELLVILLE     N/A     59 N/A N/A MISG        N/A
SHOALS AIRPORT CLOUDY    61  54  77 N6        29.98R
$$

ALZ005>007-016-031400-
NORTH CENTRAL ALABAMA

CITY           SKY/WX    TMP DP  RH WIND       PRES   REMARKS
CULLMAN AG STN   N/A     59 N/A N/A N3          N/A
DECATUR AP     CLOUDY    60  55  83 NE7       29.96S
HUNTSVILLE AP  FAIR      63  54  72 N8        29.95S
HUN NWS/UAH      N/A     61  53  73 N6          N/A
MERIDIANVILLE  FAIR      59  52  77 N3        29.95S
REDSTONE ARSN  FAIR      62  56  81 NE8       29.94S
VINEMONT AP    CLOUDY    58  55  89 N3        29.98R
$$

ALZ008>010-031400-
NORTHEAST ALABAMA

CITY           SKY/WX    TMP DP  RH WIND       PRES   REMARKS
ALBERTVILLE    CLOUDY    59  59 100 N6        29.94R
FORT PAYNE     CLOUDY    59  55  88 NW5       29.94R FOG
SCOTTSBORO AP  CLOUDY    61  59  94 N5        29.95S
SCOTTSBORO HCN   N/A     61 N/A N/A MISG        N/A
VALLEY HEAD      N/A     59 N/A N/A MISG        N/A
$$

TNZ076-096-097-031400-
SOUTHEASTERN MIDDLE TENNESSEE

CITY           SKY/WX    TMP DP  RH WIND       PRES   REMARKS
TULLAHOMA      MOSUNNY   57  55  94 NW9       29.96S
WINCHESTER     PTSUNNY   59  55  88 N6        29.95S
$$

...SURROUNDING SITES...

CITY           SKY/WX    TMP DP  RH WIND       PRES   REMARKS
ATLANTA        PTSUNNY   67  62  84 NW5       29.91S
ANNISTON       CLOUDY    66  63  90 W6        29.94R
BIRMINGHAM     CLOUDY    62  59  90 N8        29.97R
CHATTANOOGA    PTSUNNY   62  56  80 N12       29.93R
DALTON         CLOUDY    63  63 100 N3        29.92S
GADSDEN        CLOUDY    63  61  93 NW5       29.95R
GOLDEN TRNGL   CLOUDY    61  57  88 NW5       29.98R
HALEYVILLE     CLOUDY    58  55  90 N7        29.99R
JACKSON TN     CLOUDY    57  51  80 N7        30.01R
MEMPHIS        PTSUNNY   59  53  80 N9        30.01R
NASHVILLE      PTSUNNY   58  50  75 N6        29.97S
ROME           CLOUDY    66  62  87 NW5       29.90S
SAVANNAH       CLOUDY    57  55  94 N5        29.99R
TUPELO         CLOUDY    59  55  87 N12       29.99
TUSCALOOSA     CLOUDY    64  60  87 N6        29.97R
$$

...GULF COAST WEATHER...

CITY           SKY/WX    TMP DP  RH WIND       PRES   REMARKS
GULFPORT       CLOUDY    69  67  93 N9        29.94R
PASCAGOULA     CLOUDY    70  68  93 N9        29.94S
MOBILE         FOG       68  68 100 N9        29.96R VSB 1
GULF SHORES    CLOUDY    71  71 100 NW9       29.93R
PENSACOLA      PTSUNNY   73  70  88 NW8       29.93R
DESTIN         FAIR      79  74  84 NW3       29.93R
PANAMA CITY    MOSUNNY   77  72  85 W9        29.94R
APPALACHICOLA  FAIR      78  74  87 W6        29.94R
$$





USA.gov is the U.S. government's official web portal to all federal, state and local government web resources and services.